AFL715 URMM-UDYZ

Flight info

Callsign AFL715
Flight time 0h 48m
Altitude 37000
Route MOZAT5M MOZAT M54 GUSLI L125 OGEVI T918 TIBLO
Aircraft A320/M-SDE3FGHIRWY/LB1

Departure

Time 2026-04-28 05:00
Airport Mineralnye Vody Airport (URMM)

Arrival

Time 2026-04-28 05:48
Airport Zvartnots International Airport (UDYZ)
Time Latitude Longitude Altitude Speed Heading
2026-04-28 04:44 44.21875 43.08735 1051 ft 0 kts 212°
2026-04-28 04:46 44.21875 43.08736 1051 ft 0 kts 212°
2026-04-28 04:51 44.21875 43.08735 1051 ft 1 kts 212°
2026-04-28 04:51 44.21894 43.08752 1051 ft 4 kts 208°
2026-04-28 04:52 44.21918 43.08768 1052 ft 4 kts 200°
2026-04-28 04:52 44.21944 43.08777 1051 ft 4 kts 176°
2026-04-28 04:52 44.21962 43.08768 1051 ft 1 kts 122°
2026-04-28 04:52 44.21965 43.08762 1051 ft 0 kts 122°
2026-04-28 04:55 44.21941 43.08814 1051 ft 9 kts 122°
2026-04-28 04:55 44.21911 43.08880 1051 ft 8 kts 122°
2026-04-28 04:55 44.21868 43.08975 1051 ft 13 kts 121°
2026-04-28 04:55 44.21820 43.09072 1051 ft 11 kts 128°
2026-04-28 04:56 44.21780 43.09160 1051 ft 10 kts 121°
2026-04-28 04:56 44.21744 43.09235 1051 ft 9 kts 123°
2026-04-28 04:56 44.21707 43.09302 1051 ft 12 kts 133°
2026-04-28 04:56 44.21648 43.09405 1051 ft 13 kts 122°
2026-04-28 04:57 44.21602 43.09508 1051 ft 12 kts 121°
2026-04-28 04:57 44.21561 43.09598 1051 ft 10 kts 122°
2026-04-28 04:57 44.21525 43.09677 1051 ft 9 kts 122°
2026-04-28 04:57 44.21516 43.09793 1051 ft 17 kts 80°
2026-04-28 04:58 44.21544 43.09960 1051 ft 18 kts 76°
2026-04-28 04:58 44.21572 43.10130 1051 ft 12 kts 77°
2026-04-28 04:58 44.21608 43.10222 1052 ft 10 kts 39°
2026-04-28 04:58 44.21679 43.10287 1050 ft 15 kts 32°
2026-04-28 04:59 44.21764 43.10312 1052 ft 12 kts 319°
2026-04-28 04:59 44.21788 43.10263 1053 ft 0 kts 302°
2026-04-28 04:59 44.21823 43.10185 1054 ft 38 kts 301°
2026-04-28 04:59 44.22105 43.09565 1057 ft 110 kts 302°
2026-04-28 05:00 44.22622 43.08432 1056 ft 165 kts 302°
2026-04-28 05:00 44.23260 43.07040 1606 ft 169 kts 302°
2026-04-28 05:00 44.23892 43.05653 2429 ft 171 kts 302°
2026-04-28 05:00 44.24564 43.04158 2850 ft 193 kts 302°
2026-04-28 05:01 44.25317 43.02483 3276 ft 213 kts 302°
2026-04-28 05:01 44.26149 43.00632 3749 ft 236 kts 301°
2026-04-28 05:01 44.27035 42.98654 4495 ft 248 kts 301°
2026-04-28 05:01 44.27966 42.96580 5435 ft 254 kts 301°
2026-04-28 05:02 44.28915 42.94472 6385 ft 259 kts 301°
2026-04-28 05:02 44.29882 42.92324 7284 ft 263 kts 300°
2026-04-28 05:02 44.30856 42.90157 8250 ft 264 kts 300°
2026-04-28 05:02 44.31618 42.87841 9231 ft 263 kts 283°
2026-04-28 05:03 44.31794 42.85315 10213 ft 262 kts 265°
2026-04-28 05:03 44.31366 42.82811 10986 ft 271 kts 248°
2026-04-28 05:03 44.30333 42.80469 11328 ft 297 kts 235°
2026-04-28 05:03 44.28992 42.78166 11583 ft 322 kts 226°
2026-04-28 05:04 44.27002 42.76485 11792 ft 353 kts 201°
2026-04-28 05:04 44.24489 42.76223 12283 ft 375 kts 174°
2026-04-28 05:04 44.21976 42.77431 12952 ft 388 kts 159°
2026-04-28 05:04 44.19540 42.79113 13675 ft 393 kts 155°
2026-04-28 05:05 44.17127 42.80958 14144 ft 398 kts 154°
2026-04-28 05:05 44.14718 42.82879 14289 ft 401 kts 153°
2026-04-28 05:05 44.12292 42.84822 14948 ft 403 kts 154°
2026-04-28 05:05 44.09845 42.86750 15606 ft 406 kts 154°
2026-04-28 05:06 44.07363 42.88665 16239 ft 409 kts 155°
2026-04-28 05:06 44.04853 42.90565 16869 ft 413 kts 155°
2026-04-28 05:06 44.02310 42.92466 17503 ft 417 kts 155°
2026-04-28 05:06 43.99741 42.94376 18128 ft 420 kts 156°
2026-04-28 05:07 43.97152 42.96298 18706 ft 424 kts 156°
2026-04-28 05:07 43.94579 42.98210 19218 ft 426 kts 155°
2026-04-28 05:07 43.91925 43.00186 19758 ft 429 kts 155°
2026-04-28 05:07 43.89326 43.02126 20271 ft 431 kts 155°
2026-04-28 05:08 43.86679 43.04103 20752 ft 433 kts 155°
2026-04-28 05:08 43.84016 43.06086 21249 ft 436 kts 155°
2026-04-28 05:08 43.81340 43.08078 21724 ft 438 kts 155°
2026-04-28 05:08 43.78650 43.10078 22180 ft 440 kts 156°
2026-04-28 05:09 43.75943 43.12083 22615 ft 442 kts 156°
2026-04-28 05:09 43.73126 43.13752 23041 ft 440 kts 165°
2026-04-28 05:09 43.70168 43.14808 23468 ft 437 kts 174°
2026-04-28 05:09 43.67155 43.15369 23878 ft 437 kts 177°
2026-04-28 05:10 43.64124 43.15893 24229 ft 439 kts 177°
2026-04-28 05:10 43.61088 43.16424 24556 ft 441 kts 177°
2026-04-28 05:10 43.58032 43.16961 24894 ft 443 kts 177°
2026-04-28 05:10 43.55007 43.17492 25200 ft 445 kts 177°
2026-04-28 05:11 43.51920 43.18030 25460 ft 447 kts 177°
2026-04-28 05:11 43.48827 43.18567 25746 ft 449 kts 177°
2026-04-28 05:11 43.45718 43.19108 26024 ft 451 kts 177°
2026-04-28 05:11 43.42597 43.19652 26319 ft 453 kts 177°
2026-04-28 05:12 43.39459 43.20201 26581 ft 454 kts 177°
2026-04-28 05:12 43.36322 43.20752 26891 ft 456 kts 177°
2026-04-28 05:12 43.33171 43.21308 27188 ft 457 kts 177°
2026-04-28 05:12 43.30003 43.21861 27449 ft 459 kts 177°
2026-04-28 05:13 43.26825 43.22413 27669 ft 461 kts 177°
2026-04-28 05:13 43.23634 43.22964 27893 ft 462 kts 177°
2026-04-28 05:13 43.20450 43.23519 28161 ft 461 kts 177°
2026-04-28 05:13 43.17278 43.24077 28377 ft 460 kts 177°
2026-04-28 05:14 43.14108 43.24634 28648 ft 459 kts 177°
2026-04-28 05:14 43.10945 43.25191 28937 ft 458 kts 177°
2026-04-28 05:14 43.07794 43.25748 29201 ft 456 kts 178°
2026-04-28 05:14 43.04687 43.26292 29471 ft 456 kts 177°
2026-04-28 05:15 43.01544 43.26832 29752 ft 455 kts 178°
2026-04-28 05:15 42.98403 43.27367 30056 ft 454 kts 178°
2026-04-28 05:15 42.95269 43.27902 30335 ft 453 kts 178°
2026-04-28 05:15 42.92152 43.28558 30566 ft 456 kts 172°
2026-04-28 05:16 42.89100 43.29805 30837 ft 461 kts 165°
2026-04-28 05:16 42.86086 43.31288 31126 ft 460 kts 165°
2026-04-28 05:16 42.83079 43.32770 31412 ft 459 kts 165°
2026-04-28 05:17 42.77079 43.35724 31971 ft 458 kts 165°
2026-04-28 05:17 42.74082 43.37193 32264 ft 457 kts 165°
2026-04-28 05:17 42.71095 43.38650 32587 ft 456 kts 165°
2026-04-28 05:17 42.68110 43.40103 32893 ft 455 kts 165°
2026-04-28 05:18 42.65134 43.41549 33190 ft 454 kts 165°
2026-04-28 05:18 42.62160 43.42992 33455 ft 453 kts 164°
2026-04-28 05:18 42.59187 43.44434 33706 ft 454 kts 164°
2026-04-28 05:18 42.56208 43.45833 33983 ft 453 kts 166°
2026-04-28 05:19 42.53205 43.47124 34253 ft 451 kts 167°
2026-04-28 05:19 42.50199 43.48335 34498 ft 450 kts 168°
2026-04-28 05:19 42.47228 43.49499 34729 ft 450 kts 168°
2026-04-28 05:19 42.44225 43.50676 34974 ft 449 kts 168°
2026-04-28 05:20 42.41222 43.51869 35205 ft 449 kts 167°
2026-04-28 05:20 42.38234 43.53077 35455 ft 448 kts 167°
2026-04-28 05:20 42.35249 43.54297 35692 ft 448 kts 167°
2026-04-28 05:20 42.32272 43.55520 35913 ft 447 kts 167°
2026-04-28 05:21 42.29290 43.56747 36125 ft 447 kts 167°
2026-04-28 05:21 42.26318 43.57970 36321 ft 447 kts 167°
2026-04-28 05:21 42.23345 43.59189 36530 ft 447 kts 167°
2026-04-28 05:21 42.20366 43.60406 36713 ft 446 kts 167°
2026-04-28 05:22 42.17394 43.61613 36887 ft 446 kts 167°
2026-04-28 05:22 42.14423 43.62816 37064 ft 446 kts 167°
2026-04-28 05:22 42.11450 43.64022 37182 ft 447 kts 167°
2026-04-28 05:22 42.08442 43.65053 37209 ft 444 kts 174°
2026-04-28 05:23 42.02331 43.66000 37200 ft 442 kts 178°
2026-04-28 05:23 41.96251 43.66872 37202 ft 442 kts 177°
2026-04-28 05:24 41.90130 43.67749 37199 ft 443 kts 177°
2026-04-28 05:24 41.84007 43.68636 37192 ft 442 kts 177°
2026-04-28 05:25 41.77892 43.69526 37200 ft 442 kts 177°
2026-04-28 05:25 41.71776 43.70399 37191 ft 442 kts 177°
2026-04-28 05:26 41.65659 43.71272 37195 ft 442 kts 177°
2026-04-28 05:26 41.59547 43.72152 37192 ft 442 kts 177°
2026-04-28 05:27 41.53476 43.73021 37170 ft 441 kts 177°
2026-04-28 05:27 41.47378 43.73899 37175 ft 441 kts 177°
2026-04-28 05:28 41.41284 43.74765 37176 ft 441 kts 177°
2026-04-28 05:28 41.35184 43.75627 37174 ft 441 kts 177°
2026-04-28 05:29 41.30115 43.76346 37167 ft 441 kts 177°
2026-04-28 05:29 41.24009 43.77212 37176 ft 440 kts 177°
2026-04-28 05:30 41.17915 43.78063 37058 ft 440 kts 177°
2026-04-28 05:30 41.14858 43.78496 36304 ft 442 kts 177°
2026-04-28 05:30 41.11820 43.78928 35461 ft 443 kts 176°
2026-04-28 05:31 41.08752 43.79377 34602 ft 445 kts 176°
2026-04-28 05:31 41.05669 43.79839 33590 ft 448 kts 176°
2026-04-28 05:31 41.02556 43.80311 32557 ft 451 kts 175°
2026-04-28 05:31 40.99433 43.80786 31495 ft 454 kts 175°
2026-04-28 05:32 40.96284 43.81261 30372 ft 458 kts 175°
2026-04-28 05:32 40.93100 43.81737 29071 ft 462 kts 175°
2026-04-28 05:32 40.89897 43.82215 27806 ft 464 kts 175°
2026-04-28 05:32 40.86684 43.82692 26516 ft 466 kts 175°
2026-04-28 05:33 40.83446 43.83171 25289 ft 468 kts 174°
2026-04-28 05:33 40.80194 43.83653 24101 ft 469 kts 174°
2026-04-28 05:33 40.76950 43.84133 22817 ft 470 kts 174°
2026-04-28 05:33 40.73692 43.84314 21573 ft 469 kts 183°
2026-04-28 05:34 40.70507 43.83820 20671 ft 453 kts 192°
2026-04-28 05:34 40.67502 43.82847 19762 ft 448 kts 195°
2026-04-28 05:34 40.64488 43.81809 18858 ft 446 kts 195°
2026-04-28 05:34 40.61504 43.80784 17949 ft 438 kts 194°
2026-04-28 05:35 40.58645 43.79806 17657 ft 410 kts 194°
2026-04-28 05:35 40.55973 43.78893 17517 ft 384 kts 194°
2026-04-28 05:35 40.53472 43.78038 17377 ft 360 kts 194°
2026-04-28 05:35 40.51119 43.77235 17241 ft 339 kts 194°
2026-04-28 05:36 40.48874 43.76470 16944 ft 327 kts 194°
2026-04-28 05:36 40.46688 43.75725 16676 ft 322 kts 194°
2026-04-28 05:36 40.44521 43.74985 16421 ft 321 kts 194°
2026-04-28 05:36 40.42357 43.74246 16160 ft 320 kts 194°
2026-04-28 05:37 40.40206 43.73521 15896 ft 318 kts 192°
2026-04-28 05:37 40.38017 43.73185 15655 ft 317 kts 179°
2026-04-28 05:37 40.35832 43.73465 15413 ft 315 kts 171°
2026-04-28 05:37 40.33670 43.73898 15161 ft 314 kts 171°
2026-04-28 05:38 40.31540 43.74319 14854 ft 314 kts 171°
2026-04-28 05:38 40.29368 43.74745 14395 ft 316 kts 171°
2026-04-28 05:38 40.27209 43.75165 14105 ft 312 kts 171°
2026-04-28 05:38 40.25058 43.75580 13727 ft 312 kts 171°
2026-04-28 05:39 40.22919 43.75991 13347 ft 310 kts 171°
2026-04-28 05:39 40.20804 43.76400 12912 ft 302 kts 171°
2026-04-28 05:39 40.18823 43.76949 12661 ft 283 kts 158°
2026-04-28 05:39 40.17186 43.78276 12203 ft 275 kts 136°
2026-04-28 05:40 40.16082 43.80266 11740 ft 270 kts 115°
2026-04-28 05:40 40.15615 43.82622 11257 ft 268 kts 95°
2026-04-28 05:40 40.15518 43.85074 10860 ft 272 kts 95°
2026-04-28 05:40 40.15416 43.87545 10475 ft 273 kts 95°
2026-04-28 05:41 40.15310 43.90008 10153 ft 271 kts 95°
2026-04-28 05:41 40.15200 43.92464 9824 ft 269 kts 95°
2026-04-28 05:41 40.15089 43.94911 9424 ft 268 kts 95°
2026-04-28 05:41 40.14978 43.97350 8981 ft 270 kts 94°
2026-04-28 05:42 40.14871 43.99737 8678 ft 258 kts 94°
2026-04-28 05:42 40.14766 44.02062 8173 ft 253 kts 94°
2026-04-28 05:42 40.14672 44.04287 7803 ft 244 kts 92°
2026-04-28 05:42 40.14631 44.06466 7466 ft 235 kts 91°
2026-04-28 05:43 40.14618 44.08560 7150 ft 227 kts 90°
2026-04-28 05:43 40.14586 44.10583 6854 ft 218 kts 92°
2026-04-28 05:43 40.14556 44.12527 6566 ft 210 kts 90°
2026-04-28 05:43 40.14560 44.14408 6305 ft 205 kts 89°
2026-04-28 05:44 40.14573 44.16262 6032 ft 202 kts 89°
2026-04-28 05:44 40.14586 44.18045 5785 ft 192 kts 89°
2026-04-28 05:44 40.14598 44.19752 5509 ft 184 kts 88°
2026-04-28 05:44 40.14610 44.21393 5270 ft 177 kts 89°
2026-04-28 05:45 40.14622 44.22964 5046 ft 170 kts 89°
2026-04-28 05:45 40.14632 44.24474 4823 ft 161 kts 89°
2026-04-28 05:45 40.14642 44.25916 4610 ft 156 kts 89°
2026-04-28 05:45 40.14652 44.27334 4405 ft 157 kts 90°
2026-04-28 05:46 40.14661 44.28761 4190 ft 157 kts 89°
2026-04-28 05:46 40.14670 44.30189 3978 ft 157 kts 89°
2026-04-28 05:46 40.14679 44.31611 3760 ft 156 kts 89°
2026-04-28 05:46 40.14687 44.33016 3529 ft 153 kts 90°
2026-04-28 05:47 40.14687 44.34369 3287 ft 149 kts 90°
2026-04-28 05:47 40.14717 44.35700 3097 ft 146 kts 91°
2026-04-28 05:47 40.14721 44.37020 2903 ft 145 kts 91°
2026-04-28 05:47 40.14725 44.38274 2829 ft 118 kts 90°
2026-04-28 05:48 40.14726 44.39118 2830 ft 72 kts 90°
2026-04-28 05:48 40.14728 44.39717 2833 ft 60 kts 90°
2026-04-28 05:48 40.14784 44.40027 2836 ft 26 kts 20°
2026-04-28 05:48 40.14906 44.40032 2837 ft 11 kts 358°
2026-04-28 05:49 40.14974 44.40021 2838 ft 9 kts 343°
2026-04-28 05:49 40.15029 44.40006 2838 ft 8 kts 357°
2026-04-28 05:49 40.15076 44.40005 2837 ft 2 kts 360°
2026-04-28 05:49 40.15083 44.40005 2838 ft 1 kts 360°
2026-04-28 05:50 40.15084 44.40005 2838 ft 0 kts 360°
2026-04-28 05:51 40.15092 44.40005 2836 ft 2 kts 360°
2026-04-28 05:51 40.15095 44.40005 2836 ft 0 kts 360°